Tracking 18984 objects as of 24-Feb-2018
HD Live streaming from Space Station
objects crossing your sky now

COSMOS 2205 (GLONASS)

Track COSMOS 2205 (GLONASS) now!
COSMOS 2205 (GLONASS) is classified as:


NORAD ID: 22058
Int'l Code: 1992-047C
Perigee: 19,106.4 km
Apogee: 19,167.5 km
Inclination: 64.7 °
Period: 675.7 minutes
Semi major axis: 25507 km
RCS: 1.3644 m2 (large)
Launch date: July 30, 1992
Source: Commonwealth of Independent States (former USSR) (CIS)
Launch site: TYURATAM MISSILE AND SPACE COMPLEX (TTMTR)
SV:
aabbcc
Your satellite tracking list
Your tracking list is empty




NASA's NSSDC Master Catalog

Two Line Element Set (TLE):
1 22058U 92047C   18054.61661731 +.00000009 +00000-0 +00000-0 0  9997
2 22058 064.6528 047.9081 0011983 236.8472 001.6106 02.13102719198843
Source of the keplerian elements: AFSPC